FW0225 Weather Reports


Display with metric or nautical units.
time (UTC)temp
F
wind
direction
speed
MPH
gust
MPH
rain 1hr
in
rain 24hr
in
rain mn
in
humidity
%
barometer
mb
20260508153539 72 217 2.0 4.0 0.00 0.00 0.00 61 1012.8
20260508153031 72 215 2.0 4.0 0.00 0.00 0.00 63 1012.7
20260508152513 73 214 3.0 4.0 0.00 0.00 0.00 59 1012.7
20260508152013 74 216 1.0 4.0 0.00 0.00 0.00 61 1012.7
20260508151516 74 216 2.0 4.0 0.00 0.00 0.00 58 1012.7
20260508151014 74 214 1.0 4.0 0.00 0.00 0.00 59 1012.7
20260508150516 74 213 3.0 5.0 0.00 0.00 0.00 52 1012.8
20260508150026 75 219 2.0 8.0 0.00 0.00 0.00 52 1012.8
20260508145530 75 206 4.0 8.0 0.00 0.00 0.00 51 1012.9
20260508145030 75 202 4.0 8.0 0.00 0.00 0.00 51 1012.9
20260508144514 76 198 3.0 5.0 0.00 0.00 0.00 51 1012.9
20260508144013 76 211 1.0 5.0 0.00 0.00 0.00 50 1012.9
20260508143516 76 207 1.0 5.0 0.00 0.00 0.00 54 1012.9
20260508143030 76 218 3.0 5.0 0.00 0.00 0.00 51 1013.0
20260508142515 77 271 2.0 6.0 0.00 0.00 0.00 49 1013.0
20260508142015 77 205 2.0 7.0 0.00 0.00 0.00 49 1013.0
20260508141519 77 188 4.0 7.0 0.00 0.00 0.00 48 1013.1
20260508141018 77 198 1.0 4.0 0.00 0.00 0.00 48 1013.1
20260508140520 77 188 3.0 4.0 0.00 0.00 0.00 49 1013.1
20260508140032 77 205 2.0 4.0 0.00 0.00 0.00 44 1013.0
20260508135516 77 207 2.0 5.0 0.00 0.00 0.00 45 1013.1
20260508135034 77 213 2.0 5.0 0.00 0.00 0.00 46 1013.1
20260508134515 77 194 2.0 5.0 0.00 0.00 0.00 44 1013.2
20260508134013 77 196 2.0 4.0 0.00 0.00 0.00 47 1013.3
20260508133517 77 199 1.0 4.0 0.00 0.00 0.00 45 1013.3
20260508133029 77 194 1.0 5.0 0.00 0.00 0.00 45 1013.4
20260508132531 77 184 2.0 4.0 0.00 0.00 0.00 47 1013.5
20260508132051 77 179 2.0 6.0 0.00 0.00 0.00 48 1013.6
20260508131512 76 204 2.0 6.0 0.00 0.00 0.00 46 1013.7
20260508131031 76 194 1.0 4.0 0.00 0.00 0.00 47 1013.7
20260508130517 76 198 1.0 4.0 0.00 0.00 0.00 49 1013.7
20260508130045 75 196 3.0 4.0 0.00 0.00 0.00 48 1013.8
20260508125531 75 197 1.0 4.0 0.00 0.00 0.00 52 1013.8
20260508125030 75 199 2.0 4.0 0.00 0.00 0.00 48 1013.9
20260508124514 75 136 2.0 3.0 0.00 0.00 0.00 50 1014.0
20260508124014 75 146 2.0 3.0 0.00 0.00 0.00 48 1014.0
20260508123538 75 124 1.0 4.0 0.00 0.00 0.00 55 1014.0
20260508123028 75 125 2.0 4.0 0.00 0.00 0.00 53 1014.1
20260508122531 75 191 0.0 4.0 0.00 0.00 0.00 50 1014.2
20260508122031 75 186 2.0 4.0 0.00 0.00 0.00 54 1014.3
20260508121513 75 199 1.0 5.0 0.00 0.00 0.00 52 1014.3
20260508121050 74 203 3.0 5.0 0.00 0.00 0.00 54 1014.4
20260508120513 74 216 3.0 5.0 0.00 0.00 0.00 54 1014.4
20260508120025 74 178 2.0 6.0 0.00 0.00 0.00 55 1014.3
20260508115527 74 140 2.0 4.0 0.00 0.00 0.00 54 1014.3
20260508115027 74 174 2.0 7.0 0.00 0.00 0.00 53 1014.4
20260508114514 74 210 3.0 7.0 0.00 0.00 0.00 52 1014.4
20260508114015 74 214 2.0 9.0 0.00 0.00 0.00 56 1014.5
20260508113518 74 190 4.0 9.0 0.00 0.00 0.00 56 1014.5
20260508113050 74 220 3.0 8.0 0.00 0.00 0.00 54 1014.5
20260508112552 74 192 3.0 8.0 0.00 0.00 0.00 55 1014.5
20260508112030 74 183 1.0 6.0 0.00 0.00 0.00 55 1014.5
20260508111513 74 187 3.0 6.0 0.00 0.00 0.00 56 1014.5
20260508111015 74 178 3.0 7.0 0.00 0.00 0.00 54 1014.5
20260508110520 74 224 2.0 7.0 0.00 0.00 0.00 54 1014.5
20260508110031 74 120 2.0 4.0 0.00 0.00 0.00 56 1014.6
20260508105535 74 130 2.0 6.0 0.00 0.00 0.00 53 1014.6
20260508105013 74 151 1.0 6.0 0.00 0.00 0.00 55 1014.6
20260508104516 74 184 2.0 6.0 0.00 0.00 0.00 56 1014.7
20260508104016 74 175 2.0 7.0 0.00 0.00 0.00 56 1014.7
20260508103519 74 173 3.0 8.0 0.00 0.00 0.00 55 1014.7
20260508103013 73 213 2.0 6.0 0.00 0.00 0.00 53 1014.7
20260508102515 73 196 2.0 6.0 0.00 0.00 0.00 57 1014.7
20260508102035 73 200 1.0 4.0 0.00 0.00 0.00 54 1014.8
20260508101524 73 201 1.0 5.0 0.00 0.00 0.00 53 1014.7
20260508101025 73 205 4.0 5.0 0.00 0.00 0.00 52 1014.7
20260508100527 73 186 3.0 5.0 0.00 0.00 0.00 55 1014.8
20260508100018 72 203 2.0 5.0 0.00 0.00 0.00 50 1014.8
20260508095523 73 201 3.0 5.0 0.00 0.00 0.00 51 1014.9
20260508095022 72 215 3.0 6.0 0.00 0.00 0.00 53 1014.9
20260508094527 72 219 3.0 6.0 0.00 0.00 0.00 51 1014.9
20260508094028 72 195 2.0 6.0 0.00 0.00 0.00 52 1015.0
20260508093512 72 189 4.0 6.0 0.00 0.00 0.00 55 1014.9
20260508093045 72 174 1.0 4.0 0.00 0.00 0.00 57 1014.9
20260508092527 71 196 2.0 4.0 0.00 0.00 0.00 55 1014.9
20260508092024 71 190 2.0 4.0 0.00 0.00 0.00 57 1015.0
20260508091525 70 183 1.0 4.0 0.00 0.00 0.00 59 1015.1
20260508091025 69 185 2.0 4.0 0.00 0.00 0.00 59 1015.1
20260508090529 69 159 2.0 5.0 0.00 0.00 0.00 61 1015.1
20260508090021 69 143 1.0 4.0 0.00 0.00 0.00 61 1015.2
20260508085527 68 133 2.0 4.0 0.00 0.00 0.00 63 1015.3
20260508085026 67 148 0.0 3.0 0.00 0.00 0.00 63 1015.3
20260508084529 67 152 1.0 5.0 0.00 0.00 0.00 66 1015.3
20260508084030 66 170 2.0 5.0 0.00 0.00 0.00 65 1015.3
20260508083513 65 180 2.0 5.0 0.00 0.00 0.00 67 1015.4
20260508083026 65 149 2.0 4.0 0.00 0.00 0.00 68 1015.4
20260508082528 64 115 2.0 4.0 0.00 0.00 0.00 69 1015.5
20260508082028 64 71 1.0 6.0 0.00 0.00 0.00 68 1015.5
20260508081513 64 55 2.0 6.0 0.00 0.00 0.00 68 1015.5
20260508081052 64 52 4.0 6.0 0.00 0.00 0.00 69 1015.6
20260508080514 63 55 3.0 5.0 0.00 0.00 0.00 69 1015.7
20260508080028 63 57 3.0 5.0 0.00 0.00 0.00 69 1015.8
20260508075551 63 61 2.0 5.0 0.00 0.00 0.00 69 1015.9
20260508075029 62 59 2.0 6.0 0.00 0.00 0.00 70 1015.9
20260508074516 62 59 3.0 6.0 0.00 0.00 0.00 70 1015.9
20260508074016 62 60 2.0 4.0 0.00 0.00 0.00 70 1016.0
20260508073520 61 59 1.0 5.0 0.00 0.00 0.00 71 1016.0
20260508073052 61 59 2.0 5.0 0.00 0.00 0.00 71 1016.0
20260508072513 60 61 2.0 5.0 0.00 0.00 0.00 71 1016.0
20260508072012 60 59 2.0 4.0 0.00 0.00 0.00 71 1016.0
20260508071515 60 59 2.0 5.0 0.00 0.00 0.00 72 1016.0
20260508071036 60 58 2.0 7.0 0.00 0.00 0.00 73 1016.0
20260508070519 59 59 4.0 7.0 0.00 0.00 0.00 72 1015.9
20260508070029 59 53 3.0 7.0 0.00 0.00 0.00 73 1016.0
20260508065513 59 54 2.0 6.0 0.00 0.00 0.00 73 1016.0
20260508065013 59 57 3.0 7.0 0.00 0.00 0.00 73 1016.0
20260508064517 58 57 3.0 7.0 0.00 0.00 0.00 75 1016.1
20260508064016 58 54 3.0 5.0 0.00 0.00 0.00 74 1016.2
20260508063518 58 58 2.0 4.0 0.00 0.00 0.00 75 1016.2
20260508063030 57 57 2.0 5.0 0.00 0.00 0.00 77 1016.2
20260508062517 57 58 1.0 5.0 0.00 0.00 0.00 76 1016.2
20260508062016 57 58 3.0 6.0 0.00 0.00 0.00 77 1016.3
20260508061519 57 61 2.0 9.0 0.00 0.00 0.00 76 1016.2
20260508061017 57 62 5.0 9.0 0.00 0.00 0.00 77 1016.1
20260508060520 56 74 4.0 8.0 0.00 0.00 0.00 77 1016.0
20260508060031 56 94 3.0 7.0 0.00 0.00 0.00 77 1016.0
20260508055533 56 101 2.0 4.0 0.00 0.00 0.00 78 1016.0
20260508055032 56 102 1.0 3.0 0.00 0.00 0.00 78 1016.0
20260508054515 55 103 2.0 3.0 0.00 0.00 0.00 79 1016.0
20260508054016 55 103 1.0 6.0 0.00 0.00 0.00 81 1016.0
20260508053519 54 103 3.0 6.0 0.00 0.00 0.00 81 1016.0
20260508053031 54 107 3.0 6.0 0.00 0.00 0.00 81 1016.0
20260508052514 53 111 3.0 6.0 0.00 0.00 0.00 81 1016.1
20260508052035 53 113 2.0 6.0 0.00 0.00 0.00 82 1016.1
20260508051538 53 115 3.0 6.0 0.00 0.00 0.00 82 1015.9
20260508051015 53 119 2.0 7.0 0.00 0.00 0.00 83 1015.9
20260508050519 53 120 3.0 7.0 0.00 0.00 0.00 83 1015.9
20260508050029 52 126 3.0 8.0 0.00 0.00 0.00 84 1015.9
20260508045517 52 129 4.0 8.0 0.00 0.00 0.00 84 1016.0
20260508045017 52 141 3.0 8.0 0.00 0.00 0.00 84 1015.9
20260508044520 52 155 3.0 8.0 0.00 0.00 0.00 85 1015.9
20260508044019 51 174 4.0 7.0 0.00 0.00 0.00 86 1015.9
20260508043523 51 184 1.0 4.0 0.00 0.00 0.00 86 1015.9
20260508043015 51 184 1.0 7.0 0.00 0.00 0.00 86 1015.8
20260508042516 51 184 2.0 7.0 0.00 0.00 0.00 86 1015.8
20260508041520 51 191 0.0 5.0 0.00 0.00 0.00 87 1015.8
20260508041019 51 191 2.0 5.0 0.00 0.00 0.00 87 1015.8
20260508040522 51 192 1.0 4.0 0.00 0.00 0.00 87 1015.9
20260508040035 51 192 1.0 3.0 0.00 0.00 0.00 88 1015.8
20260508035516 51 192 1.0 2.0 0.00 0.00 0.00 88 1015.8
20260508035016 51 192 0.0 2.0 0.00 0.00 0.00 88 1015.8
20260508034519 51 192 0.0 2.0 0.00 0.00 0.00 88 1015.8
20260508034018 51 192 1.0 2.0 0.00 0.00 0.00 88 1015.8
20260508033522 51 192 0.0 2.0 0.00 0.00 0.00 87 1015.9
20260508033013 51 192 0.0 1.0 0.00 0.00 0.00 87 1015.8
20260508032537 51 192 0.0 2.0 0.00 0.00 0.00 87 1015.8
20260508032013 51 192 1.0 2.0 0.00 0.00 0.00 87 1015.9
20260508031535 52 192 1.0 1.0 0.00 0.00 0.00 86 1015.9
20260508031015 52 192 0.0 2.0 0.00 0.00 0.00 86 1016.0
20260508030518 52 192 1.0 3.0 0.00 0.00 0.00 86 1016.0
20260508030033 52 192 1.0 6.0 0.00 0.00 0.00 85 1015.9
20260508025519 52 192 3.0 6.0 0.00 0.00 0.00 85 1016.0
20260508025019 52 197 0.0 2.0 0.00 0.00 0.00 86 1016.0
20260508024541 52 197 0.0 6.0 0.00 0.00 0.00 85 1016.0
20260508024020 52 197 2.0 6.0 0.00 0.00 0.00 85 1016.0
20260508023524 52 200 3.0 6.0 0.00 0.00 0.00 86 1016.0
20260508023037 52 205 3.0 5.0 0.00 0.00 0.00 86 1016.1
20260508022518 52 206 2.0 4.0 0.00 0.00 0.00 86 1016.0
20260508022038 52 207 2.0 4.0 0.00 0.00 0.00 87 1016.1
20260508021521 52 207 1.0 5.0 0.00 0.00 0.00 88 1016.0
20260508021021 52 209 1.0 3.0 0.00 0.00 0.00 89 1016.0
20260508020523 52 209 1.0 2.0 0.00 0.00 0.00 90 1016.0
20260508020013 52 209 0.0 1.0 0.00 0.00 0.00 90 1016.0
20260508015535 52 209 0.0 1.0 0.00 0.00 0.00 90 1016.0
20260508015033 52 209 0.0 1.0 0.00 0.00 0.00 91 1016.0
20260508014515 52 209 0.0 2.0 0.00 0.00 0.00 91 1016.0
20260508014053 52 209 0.0 2.0 0.00 0.00 0.00 91 1016.1
20260508013530 52 209 0.0 0.0 0.00 0.00 0.00 92 1016.0
20260508013019 52 209 0.0 1.0 0.00 0.00 0.00 91 1016.0
20260508012521 52 209 1.0 1.0 0.00 0.00 0.00 91 1016.1
20260508012020 52 209 0.0 0.0 0.00 0.00 0.00 91 1016.0
20260508011527 52 209 0.0 0.0 0.00 0.00 0.00 91 1016.0
20260508011027 52 209 0.0 0.0 0.00 0.00 0.00 91 1016.0
20260508010550 52 209 0.0 0.0 0.00 0.00 0.00 91 1016.0
20260508010022 52 209 0.0 1.0 0.00 0.00 0.00 91 1016.0
20260508005526 51 209 0.0 1.0 0.00 0.00 0.00 91 1015.9
20260508005028 51 209 0.0 1.0 0.00 0.00 0.00 91 1016.0
20260508004531 51 209 0.0 1.0 0.00 0.00 0.00 91 1016.0
20260508004028 51 209 0.0 1.0 0.00 0.00 0.00 91 1016.0
20260508003531 51 209 0.0 2.0 0.00 0.00 0.00 91 1016.0
20260508003024 51 209 0.0 2.0 0.00 0.00 0.00 91 1015.9
20260508002528 51 209 2.0 4.0 0.00 0.00 0.00 91 1016.0
20260508002029 51 209 0.0 4.0 0.00 0.00 0.00 91 1015.9
20260508001514 51 209 1.0 3.0 0.00 0.00 0.00 91 1016.0
20260508001018 51 209 1.0 2.0 0.00 0.00 0.00 90 1016.0
20260508000520 51 209 0.0 1.0 0.00 0.00 0.00 90 1016.2
20260508000031 51 209 0.0 1.0 0.00 0.00 0.00 90 1016.2
20260507235516 51 209 0.0 1.0 0.00 0.00 0.00 90 1016.2
20260507235035 51 209 0.0 1.0 0.00 0.00 0.00 90 1016.2
20260507234518 51 209 0.0 0.0 0.00 0.00 0.00 90 1016.3
20260507234016 51 209 0.0 0.0 0.00 0.00 0.00 90 1016.3
20260507233519 51 209 0.0 1.0 0.00 0.00 0.00 90 1016.3
20260507233033 51 209 0.0 3.0 0.00 0.00 0.00 90 1016.3
20260507232515 52 209 1.0 3.0 0.00 0.00 0.00 90 1016.3
20260507232013 52 209 0.0 2.0 0.00 0.00 0.00 90 1016.2
20260507231517 52 209 1.0 2.0 0.00 0.00 0.00 90 1016.3
20260507231018 52 209 0.0 2.0 0.00 0.00 0.00 90 1016.3
20260507230523 51 209 1.0 2.0 0.00 0.00 0.00 90 1016.3
20260507230016 51 209 0.0 0.0 0.00 0.00 0.00 90 1016.3
20260507225517 52 209 0.0 2.0 0.00 0.00 0.00 90 1016.3
20260507225021 52 209 0.0 2.0 0.00 0.00 0.00 90 1016.3
20260507224523 52 209 1.0 2.0 0.00 0.00 0.00 90 1016.4
20260507224024 52 209 0.0 4.0 0.00 0.00 0.00 90 1016.4
20260507223526 52 209 2.0 4.0 0.00 0.00 0.00 90 1016.3
20260507223017 52 209 1.0 2.0 0.00 0.00 0.00 90 1016.4
20260507222520 52 209 1.0 3.0 0.00 0.00 0.00 90 1016.4
20260507222019 52 209 2.0 3.0 0.00 0.00 0.00 90 1016.4
20260507221523 52 209 1.0 3.0 0.00 0.00 0.00 90 1016.4
20260507221023 52 209 1.0 3.0 0.00 0.00 0.00 90 1016.4
20260507220527 52 209 1.0 3.0 0.00 0.00 0.00 90 1016.4
20260507220018 52 209 2.0 4.0 0.00 0.04 0.00 91 1016.4
20260507215520 51 209 2.0 4.0 0.00 0.04 0.00 91 1016.4
20260507215020 51 209 1.0 3.0 0.00 0.04 0.00 91 1016.3
20260507214525 51 209 0.0 3.0 0.00 0.04 0.00 90 1016.2
20260507214045 51 209 0.0 2.0 0.00 0.04 0.00 90 1016.1
20260507213528 51 209 1.0 2.0 0.00 0.04 0.00 90 1016.0
20260507213023 51 209 1.0 2.0 0.00 0.04 0.00 90 1016.0
20260507212524 51 209 1.0 2.0 0.00 0.04 0.00 90 1016.1
20260507212024 51 209 0.0 1.0 0.00 0.04 0.00 90 1016.1
20260507211527 51 209 0.0 1.0 0.00 0.04 0.00 89 1016.0
20260507211025 51 209 0.0 0.0 0.00 0.04 0.00 89 1016.0
20260507210527 51 209 0.0 0.0 0.00 0.04 0.00 89 1016.0
20260507210037 51 209 0.0 1.0 0.00 0.04 0.00 89 1016.0
20260507205519 51 209 0.0 1.0 0.00 0.04 0.00 88 1015.9
20260507205018 51 209 0.0 0.0 0.00 0.04 0.00 88 1015.9
20260507204522 51 209 0.0 0.0 0.00 0.04 0.00 88 1015.8
20260507204022 51 209 0.0 0.0 0.00 0.04 0.00 88 1015.8
20260507203524 51 209 0.0 0.0 0.00 0.04 0.00 87 1015.7
20260507203015 52 209 0.0 0.0 0.00 0.04 0.00 87 1015.6
20260507202519 52 209 0.0 0.0 0.00 0.04 0.00 87 1015.5
20260507202019 52 209 0.0 0.0 0.00 0.04 0.00 87 1015.5
20260507201527 52 209 0.0 0.0 0.00 0.04 0.00 87 1015.4
20260507201028 52 209 0.0 0.0 0.00 0.04 0.00 87 1015.3
20260507200530 52 209 0.0 0.0 0.00 0.04 0.00 87 1015.3
20260507200021 52 209 0.0 0.0 0.00 0.04 0.00 86 1015.2
20260507195525 52 209 0.0 1.0 0.00 0.04 0.00 86 1015.1
20260507195024 52 209 0.0 1.0 0.00 0.04 0.00 86 1015.1
20260507194527 53 209 0.0 1.0 0.00 0.04 0.00 86 1015.1
20260507194024 53 209 0.0 0.0 0.00 0.04 0.00 85 1014.9
20260507193525 53 209 0.0 0.0 0.00 0.04 0.00 85 1014.8
20260507193018 53 209 0.0 0.0 0.00 0.04 0.00 85 1014.7
20260507192521 53 209 0.0 1.0 0.00 0.04 0.00 85 1014.6
20260507192022 54 209 0.0 1.0 0.00 0.04 0.00 85 1014.5
20260507191527 54 209 0.0 1.0 0.00 0.04 0.00 84 1014.5
20260507191027 54 209 0.0 0.0 0.00 0.04 0.00 84 1014.3
20260507190514 54 209 0.0 1.0 0.00 0.04 0.00 83 1014.2
20260507190026 55 209 0.0 1.0 0.00 1.18 0.00 84 1014.2
20260507185529 55 209 0.0 0.0 0.00 1.18 0.00 83 1014.1
20260507185051 55 209 0.0 0.0 0.00 1.18 0.00 83 1014.0
20260507184513 56 209 0.0 0.0 0.00 1.18 0.00 82 1013.9
20260507184032 56 209 0.0 0.0 0.00 1.18 0.00 82 1013.9
20260507183514 56 209 0.0 1.0 0.00 1.18 0.00 81 1013.7
20260507183047 57 209 1.0 1.0 0.00 1.18 0.00 81 1013.7
20260507182530 57 209 0.0 0.0 0.00 1.18 0.00 81 1013.6
20260507182031 57 209 0.0 1.0 0.00 1.18 0.00 80 1013.5
20260507181513 58 209 0.0 1.0 0.00 1.18 0.00 81 1013.4
20260507181033 58 209 0.0 1.0 0.00 1.18 0.00 81 1013.4
20260507180515 59 209 0.0 1.0 0.00 1.18 0.00 81 1013.4
20260507180028 59 209 0.0 1.0 0.00 1.26 0.00 81 1013.3
20260507175530 59 209 0.0 1.0 0.00 1.26 0.00 81 1013.3
20260507175049 60 209 0.0 0.0 0.00 1.26 0.00 80 1013.3
20260507174530 60 209 0.0 0.0 0.00 1.26 0.00 82 1013.3
20260507174029 61 209 0.0 0.0 0.00 1.26 0.00 82 1013.3
20260507173516 61 209 0.0 1.0 0.00 1.26 0.00 82 1013.3
20260507173045 61 209 0.0 2.0 0.00 1.26 0.00 82 1013.3
20260507172511 61 209 1.0 2.0 0.00 1.26 0.00 81 1013.2
20260507172030 61 209 0.0 2.0 0.00 1.26 0.00 80 1013.1
20260507171511 61 209 1.0 2.0 0.00 1.26 0.00 80 1013.1
20260507171030 62 209 0.0 0.0 0.00 1.26 0.00 81 1013.2
20260507170535 62 209 0.0 0.0 0.00 1.26 0.00 80 1013.2
20260507170045 62 209 0.0 2.0 0.00 2.64 0.00 81 1013.1
20260507165528 62 209 0.0 4.0 0.00 2.64 0.00 80 1013.1
20260507165030 62 209 2.0 4.0 0.00 2.64 0.00 79 1013.1
20260507164534 62 208 1.0 1.0 0.00 2.64 0.00 80 1013.1
20260507164012 62 208 0.0 1.0 0.00 2.64 0.00 78 1013.1
20260507163516 63 208 0.0 1.0 0.00 2.64 0.00 78 1013.1
20260507163047 63 208 0.0 1.0 0.00 2.64 0.00 78 1013.2
20260507162528 63 208 0.0 2.0 0.00 2.64 0.00 77 1013.3
20260507162027 63 208 1.0 2.0 0.00 2.64 0.00 75 1013.4
20260507161529 63 208 0.0 1.0 0.00 2.64 0.00 75 1013.3
20260507161028 64 208 0.0 1.0 0.00 2.64 0.00 74 1013.2
20260507160530 64 208 0.0 1.0 0.00 2.64 0.00 73 1013.1
20260507160023 64 208 0.0 4.0 0.00 2.64 0.00 71 1013.0
20260507155546 65 208 1.0 4.0 0.00 2.64 0.00 70 1013.0
20260507155029 66 208 1.0 5.0 0.00 2.64 0.00 70 1013.1
20260507154531 66 208 2.0 8.0 0.00 2.64 0.00 67 1013.0
20260507154030 67 211 3.0 8.0 0.00 2.64 0.00 64 1012.8